Hourly Data Report for September 08, 2019

SAINT JOHN A
NEW BRUNSWICK
Current Station Operator: NAVCAN

45°18'58.000" N
65°53'24.000" W
108.80 m
8104901
71609
YSJ

Download Data

Hourly Data (September 2019)
Hourly Data Report for September 8, 2019
TIME
LST
Temp Definition
°C
Dew Point Definition
°C
Rel Hum Definition
%
Precip. Amount Definition
mm

Wind Dir Definition
10's deg

Wind Spd Definition
km/h
Visibility Definition
km
Stn Press Definition
kPa
Hmdx Definition


Wind Chill Definition


Weather Definition


00:00 6.4 5.3 93   31 31 24.1 98.79     LegendNANA
01:00 6.7 5.4 92   31 31 24.1 98.91     LegendNANA
02:00 6.7 5.7 93   29 23 24.1 99.05     Cloudy
03:00 6.6 5.5 92   30 25 24.1 99.11     LegendNANA
04:00 6.7 5.5 92   29 24 24.1 99.18     LegendNANA
05:00 6.5 5.8 95   28 14 24.1 99.31     Cloudy
06:00 7.0 6.0 93   28 14 24.1 99.44     LegendNANA
07:00 7.8 6.0 88   29 18 24.1 99.53     LegendNANA
08:00 9.5 6.8 83   29 18 24.1 99.58     Mostly Cloudy
09:00 10.8 6.6 75   29 31 24.1 99.66     LegendNANA
10:00 12.4 7.6 72   28 20 24.1 99.73     LegendNANA
11:00 13.8 7.1 64   28 19 24.1 99.75     Mostly Cloudy
12:00 15.0 6.8 58   30 27 24.1 99.79     LegendNANA
13:00 16.2 6.8 53   28 22 24.1 99.82     LegendNANA
14:00 16.6 6.5 51   29 22 24.1 99.87     Mostly Cloudy
15:00 17.6 6.9 49   29 24 24.1 99.94     LegendNANA
16:00 16.5 7.6 55   30 18 24.1 100.01     LegendNANA
17:00 16.7 7.5 54   27 16 24.1 100.09     Mainly Clear
18:00 15.8 8.2 60   26 5 24.1 100.16     LegendNANA
19:00 11.8 10.1 90   22 10 24.1 100.27     LegendNANA
20:00 10.7 10.4 98   22 7 24.1 100.38     Mainly Clear
21:00 8.5 8.5 100   36 2 24.1 100.45     LegendNANA
22:00 6.2 6.2 100   36 3 24.1 100.49     LegendNANA
23:00 7.3 6.9 97   18 5 24.1 100.53     Mainly Clear

Notes on Data Quality.

Legend

  • E = Estimated
  • M = Missing
  • NA = Not Available*
  • [empty] = Indicates an unobserved value
Date modified: